Погода в Камышлове

Погода в Камышлове : погода сейчас, прогноз погоды и архив. Всё, что Вы хотите узнать о погоде в Камышлове!

Хотите узнать прогноз погоды в Камышлове? Тогда Вам сюда: Погода в Камышлове

Поиск расширенной информации на нашем сайте:

Другие новости

Новости СМИ2

Главная страница сайта

Новости сайта

03.07.2017

Напоминаем, что на нашем специализированном сайте Метеоцентр.Азия вы можете получить высокодетализированные автоматические прогнозы погоды по пунктам России, СНГ и мира в авиационном формате (включающие направление и скорость ветра, видимость, явления погоды, количество и форму облачности, нижнюю и верхнюю границу облачности).


Погода в Камышлове - сегодня

Время (UTC), дата Ветер
(°,м/с) 
Видим.   Явления Облачность Т
(°С)
Тd
(°С)
f(%) Тe
(°С)
Pmin
(гПа)
dP
(гПа)
Po
(мм)
O2
(г/м3)
Тmin Tmax R s Состояние
почвы
18 03.10.18 180 (Ю) 4000 м    10/10 600 м 
[Sc]
+12.6 +1.4 46 +13  1016.3  -1.4  751  289           
00 04.10.18 120 (ЮВ) 4000 м    10/10 600 м 
[Sc]
+8.9 +2.6 65 +9  1014.6  -1.3  749  292           
06 04.10.18 180 (Ю) 20000 м  {ливн. осадки}  8/0 верхняя 
[Ci fib]
+11.5 +1.2 49 +12  1012.3  -1  748  289           
12 04.10.18 150 (ЮВ) 20000 м    8/0 средняя 
[Ac trans]
+18.2 +1.2 32 +19  1009.2  -0.8  746  282           
18 04.10.18 160 (Ю) 4000 м    6/6 600 м 
[Sc]
+13.4 +2.3 47 +14  1008.4  -0.7  745  286           
00 05.10.18 180 (Ю) 4000 м    4/4 600 м 
[Sc]
+14.3 +4.6 52 +15  1006.8  -0.6  744  284           
06 05.10.18 250 (З) 20000 м    10/10 600 м 
[Sc]
+14.7 +6.7 59 +16  1008.4  0.7  745  284  +12.5         
00 07.10.18 260 (З) 4000 м  {ливн. осадки}  ясно 
+2.6 -0.4 81 +1  1012.4  2.3  748  298           
06 07.10.18 230 (ЮЗ) 20000 м    10/10 600 м 
[Sc]
+5.1 +1.2 76 +3  1013.4  0.4  748  296           
18 07.10.18 250 (З) 4000 м  {дождь}  ясно 
+4.8 +3.2 89 +4  1012.8  1.8  748  296           
00 08.10.18 200 (Ю) 4000 м    ясно 
+4 +2.9 93 +5  1017  1.6  751  298           
06 08.10.18 180 (Ю) 4000 м  слаб. дождь  10/10 300 м 
[Ns]
+9 +7.8 92 +8  1015.5  -1.3  750  291           
18 09.10.18 260 (З) 4000 м    10/0 средняя 
[Ac As]
+1.7 -1.1 82 +2  1025.9  757  303           
00 10.10.18 тихо ()   4000 м    ясно 
-1.3 -2.6 91 -1  1026.9  -0.2  758  307           
06 10.10.18 230 (ЮЗ) 20000 м    10/0 средняя 
[Ac As]
+3.2 -0.4 77 +2  1024.7  -1.7  757  301           
12 10.10.18 230 (ЮЗ) 20000 м    9/0 средняя 
[Ac As]
+7.5 -0.6 56 +6  1019.2  -2.7  753  295           
18 10.10.18 210 (ЮЗ) 4000 м    10/0 средняя 
[Ac As]
+6.5 -0.4 61 +6  1010.5  -4.2  746  294           
00 12.10.18 310 (СЗ) 4{11}  н/о    н/о 
+2.8 +0.7 86 +1  1004.8  1.7  742  296           
18 12.10.18 270 (З) 4000 м    4/4 600 м 
[Sc]
-0.3 -3.9 77 -2  1007.9  -0.9  744  301           
00 13.10.18 300 (СЗ) 4000 м    ясно 
-1.6 -4.4 81 -3  1007.7  744  302           
06 13.10.18 300 (СЗ) 20000 м    8/8 600 м кучево-дожд. 
[Cb cap]
+2.2 -3.2 67 1007.8  0.1  744  298           
18 13.10.18 270 (З) 4000 м    ясно 
-0.8 -3 85 -2  1009.2  745  301           
06 14.10.18 310 (СЗ) 20000 м  {ливн. осадки}  9/3 600 м кучево-дожд., средняя, верхняя 
[Cb cap|Ac lent|Ci]
+2.5 -2 72 1010.5  0.7  746  298           
06 15.10.18 050 (СВ) 20000 м  {ливн. осадки}  9/9 600 м кучево-дожд. 
[Cb cap]
-0.4 -4 77 -2  1020.2  1.3  753  304           
12 15.10.18 030 (СВ) 20000 м    10/10 600 м 
[Sc]
-0.1 -6 64 -1  1022.2  755  305           
Время (UTC), дата Ветер
(°,м/с) 
Видим.   Явления Облачность Т
(°С)
Тd
(°С)
f(%) Тe
(°С)
Pmin
(гПа)
dP
(гПа)
Po
(мм)
O2
(г/м3)
Тmin Tmax R s Состояние
почвы

Для получения пояснительной информации подведите курсор к названию столбца.

ПОГОДА в Камышлове - архив

Всё, что Вы хотите узнать о погоде в Камышлове - удобно и подробно!

Выберите нужную дату (начиная с 1 января 2015* года) и нажмите кнопку "Найти".
Будут отображены архивные сводки погоды по пункту Камышлов, начиная с указанной даты.


Отображать данные в формате CSV (для использования в таблицах Excel)


Внимание! Наш архив погоды предназначен исключительно для личного некоммерческого использования в познавательных целях. Если Вам необходимы официальные справки о состоянии погоды (для производственных, юридических, коммерческих и т.п. целей), обращайтесь в органы Росгидромета.

*Примечание: данная дата относится к архиву по метеостанциям СССР (Россия, СНГ, Балтия).
Архив по метеостанциям Зарубежной Европы и Азии (кроме Китая) хранится 10 дней, по другим регионам земного шара (Китай, Африка, Америка, Австралия, Океания) - 1 день.

Камышлов - район местоположения метеостанции


Название, широта, долгота, высота метеостанции:
Камышлов 56.9°ш. 62.7°д. 127 м над ур. моря [Российская Федерация]

Дополнительная информация

В oтличие oт бoльшинства пoгoдных сайтoв мы публикуем пoдрoбную метеoинфoрмацию в детальнoм прoфессиoнальнoм фoрмате.

Характеристики температуры и влажнoсти вoздуха измеряются на высoте 2 м в тени вдали oт зданий и деревьев.
Скoрoсть ветра измеряется на высoте 10 м (на урoвне рoста челoвека скoрoсть ветра ниже в 1.5-2 раза). Если метеoстанция нахoдится в гoрoде или в лесу, тo скoрoсть ветра занижена на 2-4 м/с пo сравнению с oткрытым местoм. Скoрoсть ветра над акватoриями крупных рек и oзёр, а также на вершинах хoлмoв на 2-5 м/с выше, чем в oбычных услoвиях.
Атмoсфернoе давление в разных тoчках местнoсти мoжет значительнo oтличаться oт давления на метеoстанции, в зависимoсти oт услoвий рельефа (при пoдъёме на 10 м давление пoнижается примернo на 1 мм рт.ст.).